KC2NJV-10 Weather Reports


time (UTC)temp
C
wind
direction
speed
KPH
gust
KPH
rain 1hr
cm
rain 24hr
cm
rain mn
cm
humidity
%
barometer
mb
20260503053748 10 10 12.9 0.0 0.00 0.00 0.00 52 298.4
20260503052247 10 10 12.9 0.0 0.00 0.00 0.00 52 298.4
20260503050747 10 10 12.9 0.0 0.00 0.00 0.00 52 298.4
20260503045403 10 360 11.3 0.0 0.00 0.00 0.00 50 298.5
20260503045247 10 360 11.3 0.0 0.00 0.00 0.00 50 298.5
20260503043749 10 360 11.3 0.0 0.00 0.00 0.00 50 298.5
20260503042248 10 360 11.3 0.0 0.00 0.00 0.00 50 298.5
20260503040847 10 360 11.3 0.0 0.00 0.00 0.00 50 298.5
20260503040748 10 360 11.3 0.0 0.00 0.00 0.00 50 298.5
20260503035247 10 10 14.5 0.0 0.00 0.00 0.00 58 298.5
20260503033844 10 10 14.5 0.0 0.00 0.00 0.00 58 298.5
20260503033747 10 10 14.5 0.0 0.00 0.00 0.00 58 298.5
20260503032247 10 10 14.5 0.0 0.00 0.00 0.00 58 298.5
20260503025415 10 330 4.8 0.0 0.00 0.00 0.00 71 298.5
20260503025249 10 330 4.8 0.0 0.00 0.00 0.00 71 298.5
20260503022248 10 330 4.8 0.0 0.00 0.00 0.00 71 298.5
20260503020748 10 330 4.8 0.0 0.00 0.00 0.00 71 298.5
20260503015248 10 180 9.7 0.0 0.00 0.00 0.00 71 298.4
20260503013748 10 180 9.7 0.0 0.00 0.00 0.00 71 298.4
20260503012247 10 180 9.7 0.0 0.00 0.00 0.00 71 298.4
20260503010831 10 180 9.7 0.0 0.00 0.00 0.00 71 298.4
20260503010748 10 180 9.7 0.0 0.00 0.00 0.00 71 298.4
20260503005248 11 190 4.8 0.0 0.00 0.00 0.00 69 298.3
20260503003748 11 190 4.8 0.0 0.00 0.00 0.00 69 298.3
20260503002248 11 190 4.8 0.0 0.00 0.00 0.00 69 298.3
20260503000748 11 190 4.8 0.0 0.00 0.00 0.00 69 298.3
20260502235249 13 110 9.7 0.0 0.00 0.00 0.00 59 298.2
20260502233749 13 110 9.7 0.0 0.00 0.00 0.00 59 298.2
20260502232328 13 110 9.7 0.0 0.00 0.00 0.00 59 298.2
20260502232248 13 110 9.7 0.0 0.00 0.00 0.00 59 298.2
20260502230748 13 110 9.7 0.0 0.00 0.00 0.00 59 298.2
20260502225249 13 360 9.7 0.0 0.00 0.00 0.00 51 298.2
20260502223749 13 360 9.7 0.0 0.00 0.00 0.00 51 298.2
20260502220748 13 360 9.7 0.0 0.00 0.00 0.00 51 298.2
20260502215248 13 30 14.5 0.0 0.00 0.00 0.00 57 298.1
20260502213747 13 30 14.5 0.0 0.00 0.00 0.00 57 298.1
20260502212248 13 30 14.5 0.0 0.00 0.00 0.00 57 298.1
20260502210748 13 30 14.5 0.0 0.00 0.00 0.00 57 298.1
20260502205248 13 0 0.0 0.0 0.00 0.00 0.00 49 298.3
20260502203748 13 0 0.0 0.0 0.00 0.00 0.00 49 298.3
20260502202248 13 0 0.0 0.0 0.00 0.00 0.00 49 298.3
20260502200748 13 0 0.0 0.0 0.00 0.00 0.00 49 298.3
20260502195247 13 220 9.7 0.0 0.00 0.00 0.00 55 298.5
20260502193749 13 220 9.7 0.0 0.00 0.00 0.00 55 298.5
20260502192247 13 220 9.7 0.0 0.00 0.00 0.00 55 298.5
20260502190748 13 220 9.7 0.0 0.00 0.00 0.00 55 298.5
20260502185247 13 180 11.3 0.0 0.00 0.00 0.00 67 298.6
20260502183750 13 180 11.3 0.0 0.00 0.00 0.00 67 298.6
20260502182248 13 180 11.3 0.0 0.00 0.00 0.00 67 298.6
20260502180748 12 190 14.5 0.0 0.00 0.00 0.00 69 298.6
20260502163749 12 100 8.0 0.0 0.00 0.00 0.00 66 298.8
20260502162247 12 100 8.0 0.0 0.00 0.00 0.00 66 298.8
20260502160747 12 100 8.0 0.0 0.00 0.00 0.00 66 298.8
20260502152249 11 0 0.0 0.0 0.00 0.00 0.00 74 298.8
20260502150747 11 0 0.0 0.0 0.00 0.00 0.00 74 298.8
20260502130747 10 40 4.8 0.0 0.00 0.00 0.00 80 299.0
20260502123748 10 250 8.0 0.0 0.03 0.03 0.00 86 299.0
20260502122248 10 250 8.0 0.0 0.03 0.03 0.00 86 299.0
20260502120748 10 250 8.0 0.0 0.03 0.03 0.00 86 299.0
20260502115247 10 0 0.0 0.0 0.00 0.00 0.00 86 298.8
20260502113750 10 0 0.0 0.0 0.00 0.00 0.00 86 298.8
20260502112248 10 0 0.0 0.0 0.00 0.00 0.00 86 298.8
20260502110749 10 0 0.0 0.0 0.00 0.00 0.00 86 298.8
20260502105248 10 210 11.3 0.0 0.00 0.00 0.00 83 298.7
20260502103750 10 210 11.3 0.0 0.00 0.00 0.00 83 298.7
20260502102248 10 210 11.3 0.0 0.00 0.00 0.00 83 298.7
20260502100747 10 210 11.3 0.0 0.00 0.00 0.00 83 298.7
20260502090747 10 190 11.3 0.0 0.00 0.00 0.00 79 298.8
20260502070749 10 230 12.9 0.0 0.00 0.00 0.00 83 298.8
20260502065248 10 220 19.3 0.0 0.00 0.00 0.00 83 299.0